Flag for Germany Weather past 2 weeks in Georgsmarienhütte, Lower Saxony, Germany

Now
46 °F

Passing clouds.


Feels Like: 41 °F
Forecast: 46 / 67 °F
Wind: 10 mph from East

Location: Muenster / Osnabrueck


UV Index: 3 (Moderate)

Visibility: N/A


Pressure: 30.12 "Hg

Humidity: 82%

Dew point: 41 °F

Location of GeorgsmarienhütteLocation

Historic Weather in Georgsmarienhütte

°F

Georgsmarienhütte temperature yesterday

Maximum temperature yesterday: 54 °F (at 4:50 PM)
Minimum temperature yesterday: 41 °F (at 6:50 AM)
Average temperature yesterday: 47 °F

Past Weeks' High & Low Weather Summary

 TemperatureHumidityPressure
High70 °F (Apr 7, 3:50 PM)100% (Apr 4, 11:50 PM)30.48 "Hg (Apr 4, 11:50 PM)
Low28 °F (Apr 16, 6:20 AM)29% (Apr 17, 3:50 PM)29.71 "Hg (Apr 7, 11:50 PM)
Average51 °F75%30.05 "Hg
* Reported Apr 4 8:20 AM — Apr 19 8:50 AM, Georgsmarienhütte, Weather by CustomWeather, © 2014

Note: Actual official high and low records may vary slightly from our data, if they occured in-between our weather recording intervals... More about our weather records

Advertising

Historic Weather Conditions — Data for Previous 24 hours

 ConditionsComfort  
Time TempWeatherWind HumidityBarometerVisibility
8:50 AM
Apr 19
46 °FPassing clouds.12 mph76%30.09 "HgN/A
8:20 AM45 °FPassing clouds.12 mph81%30.09 "HgN/A
7:50 AM43 °FPassing clouds.7 mph87%30.07 "HgN/A
7:20 AM41 °FPassing clouds.6 mph93%30.07 "HgN/A
6:50 AM39 °FPassing clouds.6 mph100%30.04 "HgN/A
6:20 AM39 °FPassing clouds.3 mph93%30.04 "HgN/A
5:50 AM43 °FPassing clouds.7 mph87%30.04 "HgN/A
5:20 AM43 °FPartly cloudy.6 mph93%30.04 "HgN/A
4:50 AM43 °FPassing clouds.6 mph93%30.01 "HgN/A
4:20 AM43 °FPassing clouds.8 mph93%30.01 "HgN/A
3:50 AM43 °FPassing clouds.5 mph93%30.01 "HgN/A
3:20 AM43 °FPassing clouds.5 mph93%30.01 "HgN/A
2:50 AM43 °FPassing clouds.7 mph93%29.98 "HgN/A
2:20 AM43 °FPartly cloudy.8 mph87%29.98 "HgN/A
1:50 AM43 °FPassing clouds.9 mph87%29.98 "HgN/A
1:20 AM45 °FPassing clouds.7 mph87%29.98 "HgN/A
12:50 AM45 °FPassing clouds.6 mph87%29.98 "HgN/A
12:20 AM45 °FPartly cloudy.6 mph81%29.98 "HgN/A
11:50 PM
Apr 18
45 °FLight rain. Passing clouds.7 mph87%29.98 "HgN/A
11:20 PM45 °FPartly cloudy.10 mph81%29.98 "HgN/A
10:50 PM46 °FClear.8 mph76%29.98 "Hg10 mi
10:20 PM46 °FClear.10 mph71%29.98 "Hg10 mi
9:50 PM48 °FPassing clouds.10 mph71%29.98 "HgN/A
9:20 PM48 °FBroken clouds.10 mph71%29.95 "HgN/A
8:50 PM48 °FBroken clouds.8 mph66%29.95 "HgN/A
8:20 PM48 °FBroken clouds.8 mph66%29.95 "HgN/A
7:50 PM48 °FSunny.12 mph66%29.95 "Hg10 mi
7:20 PM50 °FPartly sunny.12 mph58%29.95 "HgN/A
6:50 PM50 °FPartly sunny.13 mph58%29.95 "HgN/A
6:20 PM50 °FScattered clouds.14 mph67%29.95 "HgN/A
5:50 PM52 °FScattered clouds.13 mph62%29.92 "HgN/A
5:20 PM52 °FScattered clouds.16 mph58%29.92 "HgN/A
4:50 PM54 °FScattered clouds.13 mph58%29.92 "HgN/A
4:20 PM52 °FScattered clouds.14 mph58%29.92 "HgN/A
3:20 PM52 °FPartly sunny.12 mph58%29.92 "HgN/A
2:50 PM52 °FScattered clouds.12 mph54%29.92 "HgN/A
2:20 PM48 °FSprinkles. Partly sunny.13 mph71%29.92 "HgN/A
1:50 PM50 °FPartly sunny.10 mph58%29.92 "HgN/A
1:20 PM48 °FSprinkles. Partly sunny.10 mph62%29.92 "HgN/A
12:50 PM48 °FPartly sunny.13 mph62%29.92 "HgN/A
12:20 PM50 °FPartly sunny.13 mph62%29.92 "HgN/A
11:50 AM48 °FBroken clouds.12 mph62%29.92 "HgN/A
11:20 AM48 °FBroken clouds.10 mph71%29.92 "HgN/A
10:50 AM46 °FBroken clouds.13 mph71%29.92 "HgN/A
10:20 AM46 °FBroken clouds.9 mph76%29.92 "HgN/A
9:50 AM46 °FPartly sunny.9 mph76%29.92 "HgN/A
9:20 AM45 °FPartly sunny.12 mph81%29.92 "HgN/A
Weather by CustomWeather, © 2014

See weather overview